Wind_Speed
23 26 29 31 33 35 37 36 37 43 40 30 33 29 28 31 35 37 40 44 48 51 54 56 59 62 63 64 65 64 65 66 69 70 70 69 68 71 71 67 67 67 70
28 30 32 33 35 36 38 37 37 39 46 48 33 34 34 39 43 42 45 48 49 54 59 62 64 67 68 70 72 73 75 76 79 81 82 82 80 80 81 83 83 79 79
32 34 34 35 34 34 36 38 40 41 40 42 43 48 48 52 49 49 50 50 54 59 64 67 70 73 76 78 81 82 84 85 86 87 87 88 88 87 85 84 82 81 81
33 34 34 33 33 34 36 39 42 45 44 50 54 54 53 54 54 54 55 59 63 67 70 73 75 78 79 80 80 81 82 83 82 79 78 78 78 78 79 77 75 70 66
30 31 34 35 36 37 39 42 44 47 49 51 53 55 56 57 58 60 64 67 70 74 76 78 79 80 80 78 76 75 74 73 72 69 67 67 64 63 64 64 59 59 57
32 34 36 38 39 41 43 44 45 47 50 52 54 55 57 59 62 66 69 72 75 77 79 80 81 80 78 75 73 69 67 66 64 64 64 64 64 62 61 61 56 58 60
34 36 38 40 41 42 42 43 44 44 46 49 52 55 59 64 67 70 73 76 79 80 81 82 82 80 76 70 66 63 63 64 64 64 63 64 64 64 64 66 64 60 56
33 34 35 36 37 37 37 39 41 43 46 51 56 61 65 69 72 75 78 81 82 83 83 81 80 76 68 65 64 62 60 58 58 57 56 56 58 60 61 59 55 50 50
31 31 31 31 32 33 36 39 43 47 52 57 62 66 70 74 77 81 83 84 84 83 80 76 68 61 59 58 55 51 48 47 46 44 42 41 41 42 42 41 39 39 40
31 31 32 35 37 39 42 46 49 54 58 63 67 72 76 80 83 86 85 83 80 76 67 58 54 51 51 50 48 44 41 40 38 35 33 32 32 31 30 30 30 31 29
35 36 38 40 43 45 48 51 55 60 64 69 73 77 81 85 86 85 82 75 65 54 49 47 46 45 44 43 42 40 39 37 35 32 30 28 26 25 25 24 24 24 22
40 41 42 44 47 49 53 57 61 66 70 75 79 82 84 85 82 73 60 49 43 42 42 41 39 37 36 35 35 34 35 36 35 33 30 27 25 26 27 26 24 24 20
42 43 44 46 49 53 58 62 67 71 75 78 80 79 76 68 56 46 43 41 37 35 33 32 33 35 35 34 33 33 34 34 33 31 29 27 25 25 21 18 17 18 19
45 45 46 49 53 58 62 66 70 73 74 73 70 64 53 44 40 38 35 30 27 27 29 31 31 30 27 25 25 26 25 23 24 22 20 19 18 16 16 18 16 14 14
45 45 48 52 56 61 65 68 71 69 65 61 55 48 40 34 28 23 20 20 21 23 23 22 22 22 20 21 23 21 18 17 16 15 13 13 14 14 15 17 16 15 14
45 46 50 55 59 63 66 67 61 50 40 34 28 24 21 18 16 17 17 19 21 21 21 23 24 25 24 23 22 21 20 17 14 13 12 12 13 12 14 16 14 14 12
44 48 53 58 61 62 61 53 36 24 24 24 21 19 18 17 18 22 24 26 26 26 26 27 27 27 27 26 23 21 20 18 15 14 13 11 10 12 14 11 7 8 12
47 52 57 60 60 55 46 30 18 19 21 17 17 20 21 23 26 28 27 26 26 27 28 28 28 27 27 26 24 22 20 18 15 15 13 11 11 9 9 2 4 6 11
49 54 58 57 50 41 28 15 15 16 15 15 19 23 25 26 27 28 29 29 29 29 28 28 28 28 27 26 26 25 22 19 16 13 11 11 8 6 2 3 5 9 10
51 55 53 44 35 22 10 9 10 11 12 17 21 24 26 28 30 32 33 34 34 33 31 30 28 26 25 23 23 23 21 18 16 13 10 9 5 7 4 3 3 5 2
49 46 37 27 13 3 4 5 7 9 14 19 22 25 28 30 33 35 37 39 38 36 34 32 29 26 23 21 20 19 18 17 16 13 10 7 4 7 7 6 2 6 8
39 30 20 8 2 4 5 6 8 12 16 20 23 26 29 32 35 38 40 38 34 31 31 29 26 24 22 20 18 15 13 14 15 14 12 7 5 6 7 6 6 10 13
25 16 5 4 6 8 8 8 11 15 18 21 25 29 32 35 37 40 40 36 30 29 29 27 25 23 22 21 20 15 10 8 11 14 16 13 8 6 8 7 12 14 18
12 3 5 8 10 9 9 11 14 17 19 23 26 30 33 37 40 41 39 33 29 29 29 29 29 26 24 23 23 21 15 9 7 10 17 18 13 8 10 13 15 18 20
4 7 11 11 10 9 10 14 15 18 20 22 26 30 35 39 41 41 39 32 29 30 31 31 27 25 22 18 17 18 18 12 8 8 14 19 18 15 14 18 20 20 19
9 13 14 11 9 10 12 13 15 17 19 23 27 31 35 39 42 41 39 34 30 32 34 31 26 25 24 22 19 17 14 13 10 9 11 17 20 19 18 22 26 23 19
Wind_Direction
281 281 286 292 297 298 298 297 294 293 293 297 294 284 277 283 290 289 285 286 287 290 294 293 295 296 296 295 293 290 288 284 281 278 277 277 277 276 274 273 272 271 278
274 278 279 282 289 293 297 296 290 289 294 303 290 284 277 286 295 292 289 289 289 291 293 295 296 297 298 296 293 291 288 286 285 283 279 278 277 279 279 279 279 277 276
270 275 278 282 284 286 288 286 285 289 293 296 296 292 288 293 297 295 294 294 295 295 297 298 298 297 295 294 293 292 291 289 288 288 287 285 283 282 281 281 282 282 280
278 282 283 283 283 284 282 281 284 288 285 284 285 287 291 295 296 297 298 297 298 297 297 296 296 296 295 295 295 293 291 290 289 288 287 287 286 284 282 279 279 280 281
281 283 284 284 283 282 280 281 281 282 282 282 283 287 291 294 296 297 297 297 297 296 297 298 299 299 300 299 296 294 292 290 289 288 288 287 287 286 284 281 278 277 279
278 279 280 279 278 278 277 277 277 277 279 282 285 289 290 292 293 294 295 294 295 296 298 300 300 299 299 298 297 295 294 292 290 289 288 288 288 288 284 283 286 283 281
282 282 283 282 281 279 277 277 279 281 283 286 287 289 290 292 292 293 293 294 296 298 299 299 298 298 299 298 296 296 295 293 292 291 289 288 287 285 284 284 285 283 279
291 291 289 287 284 283 282 282 283 284 285 287 289 290 290 291 292 293 294 296 298 299 298 298 297 297 296 296 296 297 297 296 294 293 292 289 286 285 284 284 283 282 279
298 296 295 293 291 289 287 286 285 286 287 288 290 291 292 293 293 294 296 298 298 298 298 299 299 297 298 299 300 300 298 298 297 297 295 293 291 289 286 285 285 285 284
300 299 299 298 297 296 295 293 293 293 294 294 294 294 293 293 294 296 297 297 298 299 299 298 298 298 298 298 298 300 300 298 297 296 296 295 293 293 290 288 288 289 289
299 301 301 300 300 300 300 299 298 298 297 296 295 295 295 296 296 297 298 298 298 297 296 296 297 298 299 299 299 298 298 300 300 299 298 296 296 297 297 297 294 289 286
301 302 303 303 303 302 302 301 301 300 300 299 299 299 299 299 299 300 299 299 299 297 297 300 302 305 306 304 302 300 300 301 300 298 297 299 299 300 298 295 292 290 287
302 303 304 304 304 304 304 303 303 302 302 302 302 301 301 301 302 302 302 302 301 300 303 306 308 310 309 306 302 301 302 302 301 297 290 290 299 305 305 305 292 283 277
303 304 305 305 304 304 304 303 303 304 305 305 305 305 306 307 307 305 304 304 304 305 308 312 316 319 320 320 317 312 310 311 309 303 293 286 293 304 307 305 297 275 264
301 302 303 303 303 303 304 305 307 307 307 309 308 308 310 313 316 318 316 314 317 320 324 330 333 335 336 337 339 333 324 323 326 317 301 290 291 298 306 317 313 285 263
298 299 300 301 302 304 306 308 309 310 318 329 340 347 348 347 343 338 332 329 328 327 324 321 320 318 316 317 320 326 330 323 320 316 307 298 295 289 294 293 294 280 246
295 298 300 300 303 306 308 309 312 322 333 339 349 355 353 350 349 344 337 332 328 324 318 313 311 309 308 308 308 308 313 321 319 310 304 299 293 294 298 292 285 246 220
296 297 298 302 306 307 308 309 316 325 332 339 350 358 355 347 341 339 335 330 324 320 317 315 314 313 311 310 309 306 301 298 308 313 310 294 289 302 312 305 330 291 255
295 299 302 306 307 307 306 304 315 327 337 344 351 351 348 346 344 344 341 336 330 324 319 316 315 314 311 307 303 299 297 288 282 293 304 307 283 259 297 331 328 314 290
300 303 306 307 307 305 297 313 327 341 348 350 350 350 352 353 352 349 345 339 333 328 323 320 318 314 311 310 305 296 288 282 273 270 281 302 268 222 236 278 325 354 357
305 308 309 308 305 300 339 358 10 0 354 356 357 359 359 356 352 348 343 338 334 332 331 330 326 320 315 313 310 301 287 271 261 249 246 277 249 208 220 236 148 91 94
309 311 312 311 87 70 65 59 23 6 5 6 6 5 1 356 353 351 347 345 345 345 344 342 339 336 330 323 318 307 288 266 251 235 219 224 229 205 219 234 154 117 114
309 310 314 114 100 99 87 51 27 21 16 12 9 7 3 0 359 356 353 352 354 353 351 348 343 337 331 327 327 325 306 277 249 225 205 197 218 215 203 164 141 127 116
302 278 134 122 117 99 69 47 36 25 15 11 10 8 6 5 3 0 359 357 356 354 351 348 342 336 327 317 313 313 316 298 270 224 202 193 191 193 194 178 163 141 126
213 158 142 134 114 89 63 45 30 18 14 12 12 9 8 7 6 4 2 1 359 357 353 352 352 350 346 333 316 301 291 288 272 234 204 194 187 178 179 182 177 163 147
159 149 143 131 109 79 55 36 22 18 14 14 10 7 7 6 6 6 6 3 359 356 355 354 355 358 358 358 351 339 309 269 252 233 210 197 189 182 172 176 177 176 173
Height
5858 5855 5852 5848 5845 5841 5837 5832 5827 5822 5823 5819 5818 5814 5813 5812 5809 5807 5803 5800 5796 5793 5791 5788 5784 5781 5775 5770 5764 5759 5754 5750 5745 5741 5740 5739 5736 5731 5726 5726 5725 5725 5722
5852 5850 5847 5845 5841 5835 5829 5827 5822 5817 5812 5808 5807 5805 5802 5800 5799 5797 5794 5791 5787 5783 5779 5775 5769 5764 5757 5751 5746 5741 5736 5731 5724 5718 5716 5717 5717 5712 5707 5704 5701 5703 5703
5845 5843 5841 5838 5835 5831 5827 5821 5817 5810 5806 5802 5798 5797 5792 5788 5786 5784 5782 5778 5773 5768 5763 5758 5752 5747 5740 5733 5725 5719 5711 5707 5703 5695 5690 5687 5689 5686 5684 5682 5680 5678 5677
5837 5834 5831 5829 5826 5823 5821 5816 5811 5804 5801 5796 5792 5786 5781 5778 5776 5772 5767 5762 5758 5753 5748 5742 5736 5729 5721 5713 5706 5699 5691 5684 5679 5674 5667 5662 5662 5659 5657 5659 5658 5657 5654
5828 5825 5822 5819 5817 5814 5811 5808 5804 5798 5792 5788 5784 5779 5774 5769 5764 5759 5753 5748 5743 5737 5731 5724 5717 5709 5702 5694 5687 5679 5671 5664 5658 5655 5649 5643 5642 5639 5633 5635 5640 5639 5636
5820 5817 5813 5810 5808 5805 5802 5798 5794 5790 5786 5782 5777 5771 5765 5759 5754 5748 5743 5736 5729 5722 5715 5707 5699 5691 5684 5675 5667 5660 5653 5647 5642 5637 5632 5626 5623 5622 5617 5614 5621 5619 5616
5811 5807 5804 5800 5797 5794 5791 5788 5785 5781 5778 5773 5768 5762 5755 5748 5742 5736 5728 5721 5713 5706 5697 5689 5680 5672 5664 5656 5649 5643 5637 5631 5626 5620 5615 5610 5606 5604 5601 5598 5600 5598 5596
5801 5798 5795 5792 5789 5786 5783 5780 5777 5773 5768 5762 5756 5749 5742 5735 5727 5719 5711 5703 5695 5687 5679 5670 5661 5653 5645 5639 5633 5628 5621 5614 5608 5603 5598 5594 5591 5587 5584 5581 5580 5579 5578
5793 5790 5787 5784 5781 5778 5774 5770 5766 5762 5756 5750 5743 5735 5727 5719 5710 5701 5693 5684 5676 5668 5659 5650 5642 5635 5629 5624 5618 5612 5606 5600 5595 5589 5584 5579 5576 5572 5570 5568 5567 5565 5564
5786 5783 5780 5776 5772 5769 5764 5759 5753 5748 5743 5735 5727 5719 5710 5701 5692 5682 5673 5665 5656 5648 5640 5633 5628 5622 5616 5610 5605 5599 5594 5590 5585 5580 5575 5571 5567 5563 5561 5559 5557 5556 5553
5779 5775 5771 5767 5763 5759 5753 5747 5741 5735 5728 5719 5710 5701 5690 5680 5670 5660 5651 5643 5636 5631 5626 5620 5615 5610 5604 5598 5593 5589 5585 5580 5575 5570 5566 5563 5559 5557 5554 5552 5550 5549 5547
5770 5766 5762 5757 5752 5747 5741 5735 5728 5719 5710 5701 5690 5680 5668 5657 5648 5639 5632 5626 5622 5618 5614 5610 5605 5600 5595 5590 5585 5580 5576 5571 5566 5562 5559 5555 5552 5549 5547 5545 5543 5542 5541
5761 5756 5752 5747 5741 5735 5728 5720 5712 5704 5695 5684 5672 5660 5649 5638 5631 5625 5621 5617 5613 5610 5605 5602 5597 5592 5586 5581 5576 5572 5566 5561 5556 5552 5550 5548 5546 5543 5540 5538 5536 5535 5535
5750 5746 5742 5736 5730 5724 5716 5708 5699 5690 5679 5667 5655 5644 5635 5628 5622 5617 5614 5611 5608 5603 5599 5594 5588 5583 5578 5573 5569 5564 5559 5554 5549 5546 5543 5541 5540 5538 5536 5534 5532 5530 5530
5741 5737 5732 5726 5720 5713 5705 5696 5686 5676 5664 5653 5641 5631 5625 5620 5616 5613 5610 5606 5602 5597 5593 5589 5584 5579 5574 5570 5565 5560 5555 5550 5545 5542 5539 5537 5536 5534 5532 5531 5528 5526 5526
5733 5728 5722 5716 5709 5701 5692 5683 5674 5664 5655 5645 5635 5627 5623 5619 5615 5611 5607 5602 5598 5593 5588 5584 5579 5574 5570 5565 5561 5557 5552 5547 5543 5540 5537 5535 5533 5532 5530 5528 5524 5522 5521
5724 5718 5712 5706 5698 5690 5682 5673 5665 5658 5651 5645 5637 5631 5625 5620 5615 5610 5605 5599 5593 5587 5583 5578 5573 5568 5563 5559 5555 5552 5548 5544 5540 5537 5535 5533 5531 5530 5527 5524 5521 5519 5518
5715 5709 5703 5695 5687 5680 5671 5665 5659 5655 5650 5644 5638 5631 5626 5621 5615 5609 5602 5595 5589 5583 5577 5572 5566 5561 5556 5552 5548 5545 5542 5540 5537 5534 5531 5529 5528 5527 5524 5521 5520 5518 5517
5705 5699 5691 5684 5677 5669 5664 5659 5656 5653 5649 5644 5639 5632 5626 5620 5613 5606 5599 5591 5584 5578 5571 5565 5559 5554 5549 5545 5541 5538 5536 5534 5532 5530 5527 5525 5524 5524 5522 5520 5518 5516 5515
5695 5688 5681 5674 5668 5662 5659 5657 5655 5652 5649 5645 5639 5632 5625 5618 5611 5603 5595 5587 5579 5572 5565 5559 5553 5548 5542 5538 5534 5531 5528 5527 5526 5524 5523 5522 5521 5521 5521 5519 5518 5516 5513
5687 5679 5672 5667 5662 5659 5658 5658 5655 5653 5649 5644 5638 5630 5623 5615 5608 5600 5592 5582 5573 5565 5558 5551 5544 5539 5535 5531 5527 5523 5521 5519 5519 5518 5518 5519 5518 5518 5518 5518 5519 5517 5515
5678 5672 5667 5663 5661 5660 5660 5658 5656 5653 5649 5643 5636 5629 5622 5614 5606 5598 5587 5577 5568 5560 5552 5545 5539 5534 5529 5525 5521 5517 5514 5512 5512 5512 5513 5515 5515 5515 5516 5517 5519 5518 5518
5672 5668 5665 5663 5662 5662 5661 5659 5657 5653 5648 5642 5635 5628 5621 5613 5605 5595 5584 5573 5565 5557 5550 5543 5537 5531 5525 5520 5516 5512 5509 5506 5506 5506 5508 5510 5512 5512 5514 5516 5518 5520 5520
5667 5666 5665 5664 5664 5664 5663 5660 5656 5653 5648 5641 5635 5628 5621 5612 5603 5593 5582 5571 5563 5555 5548 5541 5533 5527 5521 5516 5511 5507 5504 5502 5501 5501 5503 5506 5508 5510 5511 5515 5518 5521 5522
5666 5666 5666 5667 5666 5665 5663 5660 5657 5653 5648 5642 5635 5628 5620 5611 5601 5592 5581 5571 5562 5554 5546 5538 5531 5524 5517 5511 5505 5501 5497 5497 5497 5497 5498 5501 5504 5508 5510 5512 5517 5521 5524
5666 5666 5667 5668 5667 5666 5663 5661 5658 5654 5649 5642 5635 5628 5619 5610 5601 5591 5581 5571 5562 5553 5544 5536 5528 5521 5514 5507 5501 5495 5490 5490 5492 5493 5495 5497 5500 5504 5507 5511 5515 5520 5524